#�ϑ�����,���ϕ���,���ϕ���,�ő啗��,�ő啗����������,�ő�u�ԕ���,�ő�u�ԕ�����������
#(�N����),(m/s)   ,(16����),(m/s)   ,(16����)        ,(m/s)       ,(16����)            
2012/11/3 0:01,1,3,1,8,2.6,2
2012/11/3 0:02,1.1,3,1.1,8,3.8,16
2012/11/3 0:03,1.1,3,1.1,7,2.2,15
2012/11/3 0:04,1.1,2,1.1,2,1.8,14
2012/11/3 0:05,1,1,1.1,16,0.6,9
2012/11/3 0:06,1,1,1,16,1.6,9
2012/11/3 0:07,0.9,16,0.9,15,1.1,8
2012/11/3 0:08,0.9,13,0.9,4,1.1,10
2012/11/3 0:09,0.9,14,0.9,3,1.5,2
2012/11/3 0:10,0.9,13,0.9,3,1,13
2012/11/3 0:11,0.9,13,0.9,3,2.7,13
2012/11/3 0:12,0.9,12,0.9,3,3,13
2012/11/3 0:13,1,12,1,2,2.9,13
2012/11/3 0:14,1,12,1,2,2.6,14
2012/11/3 0:15,1.2,12,1.2,12,2,12
2012/11/3 0:16,1.3,13,1.3,13,2.9,15
2012/11/3 0:17,1.5,13,1.5,13,3.3,16
2012/11/3 0:18,1.8,14,1.8,14,3.9,15
2012/11/3 0:19,2,14,2,14,3.8,13
2012/11/3 0:20,2.3,13,2.3,13,5.7,11
2012/11/3 0:21,2.6,13,2.6,13,5.7,11
2012/11/3 0:22,2.7,13,2.7,13,5.4,11
2012/11/3 0:23,2.7,13,2.7,13,2.5,11
2012/11/3 0:24,2.6,13,2.6,13,1.6,1
2012/11/3 0:25,2.6,14,2.6,13,3.2,2
2012/11/3 0:26,2.5,13,2.6,13,2.2,2
2012/11/3 0:27,2.4,13,2.5,13,2.6,15
2012/11/3 0:28,2.3,12,2.4,13,2.1,9
2012/11/3 0:29,2.1,12,2.2,13,1.6,13
2012/11/3 0:30,1.8,13,2.1,13,3.3,13
2012/11/3 0:31,1.6,13,1.8,13,4.7,14
2012/11/3 0:32,1.5,14,1.6,13,4.8,14
2012/11/3 0:33,2,14,2,13,7.8,14
2012/11/3 0:34,2.4,14,2.4,13,8.4,15
2012/11/3 0:35,2.7,14,2.7,14,7.9,15
2012/11/3 0:36,2.9,14,2.9,14,4.1,15
2012/11/3 0:37,3,14,3,14,4.3,16
2012/11/3 0:38,3.1,15,3.1,15,4.4,16
2012/11/3 0:39,3.2,15,3.2,15,3.5,16
2012/11/3 0:40,3.3,15,3.3,15,7.4,14
2012/11/3 0:41,3.7,15,3.7,15,8.1,13
2012/11/3 0:42,4,15,4,15,7.7,15
2012/11/3 0:43,3.7,15,4,15,6.7,15
2012/11/3 0:44,3.4,15,3.7,15,4.3,14
2012/11/3 0:45,3.1,15,3.3,15,3.3,16
2012/11/3 0:46,2.9,15,3.1,15,2.7,1
2012/11/3 0:47,2.8,15,2.9,15,1.9,2
2012/11/3 0:48,2.6,16,2.8,15,2.1,1
2012/11/3 0:49,2.5,16,2.6,15,1.5,11
2012/11/3 0:50,2.3,16,2.5,15,1.5,1
2012/11/3 0:51,1.9,16,2.3,15,3.2,14
2012/11/3 0:52,1.6,16,1.8,15,4.2,15
2012/11/3 0:53,1.7,16,1.7,15,4.8,16
2012/11/3 0:54,1.7,16,1.7,15,5.6,1
2012/11/3 0:55,1.8,16,1.8,15,5.1,14
2012/11/3 0:56,1.9,15,1.9,15,3.3,16
2012/11/3 0:57,2,15,2,15,4.4,16
2012/11/3 0:58,2.1,15,2.1,16,3.3,15
2012/11/3 0:59,2.2,15,2.2,16,3.5,15
2012/11/3 1:00,2.3,15,2.3,16,3.3,15
2012/11/3 1:01,2.5,15,2.5,15,4.2,16
2012/11/3 1:02,2.5,16,2.5,15,4.2,1
2012/11/3 1:03,2.4,16,2.5,15,4.2,16
2012/11/3 1:04,2.3,16,2.4,15,4.9,16
2012/11/3 1:05,2.4,16,2.4,15,6,16
2012/11/3 1:06,2.4,16,2.5,15,4.2,16
2012/11/3 1:07,2.4,15,2.4,15,3.6,16
2012/11/3 1:08,2.4,15,2.5,15,3.1,12
2012/11/3 1:09,2.4,15,2.4,15,3.1,13
2012/11/3 1:10,2.4,15,2.4,15,3,16
2012/11/3 1:11,2.2,15,2.3,15,2,15
2012/11/3 1:12,2.1,15,2.2,16,2.7,14
2012/11/3 1:13,2.1,15,2.1,16,4.3,16
2012/11/3 1:14,2.1,15,2.1,16,3.8,15
2012/11/3 1:15,1.8,15,2.1,16,2.7,15
2012/11/3 1:16,1.7,15,1.8,15,1,15
2012/11/3 1:17,1.6,14,1.7,15,1.1,15
2012/11/3 1:18,1.5,14,1.6,15,1.5,11
2012/11/3 1:19,1.4,14,1.5,15,2.2,11
2012/11/3 1:20,1.3,14,1.4,15,1.3,14
2012/11/3 1:21,1.3,14,1.3,15,2.6,14
2012/11/3 1:22,1.4,13,1.4,15,3.2,14
2012/11/3 1:23,1.4,13,1.4,15,3.9,14
2012/11/3 1:24,1.4,13,1.4,15,3.5,13
2012/11/3 1:25,1.4,13,1.4,15,2.7,14
2012/11/3 1:26,1.5,13,1.5,15,2.5,16
2012/11/3 1:27,1.6,13,1.6,14,4.3,16
2012/11/3 1:28,1.8,14,1.8,14,4.5,14
2012/11/3 1:29,2.1,14,2.1,14,6.7,15
2012/11/3 1:30,2.3,14,2.3,14,4.7,15
2012/11/3 1:31,2.3,14,2.4,14,3.8,15
2012/11/3 1:32,2.3,14,2.3,14,2.5,16
2012/11/3 1:33,2.2,14,2.3,14,3.3,15
2012/11/3 1:34,2.2,15,2.2,14,3.8,15
2012/11/3 1:35,2.3,15,2.3,14,4.5,14
2012/11/3 1:36,2.4,15,2.4,14,5.6,15
2012/11/3 1:37,2.6,15,2.6,15,4.9,15
2012/11/3 1:38,2.5,15,2.6,15,3,14
2012/11/3 1:39,2.2,15,2.5,15,2.2,14
2012/11/3 1:40,2.1,15,2.2,15,2.5,16
2012/11/3 1:41,2.1,15,2.1,15,2.5,15
2012/11/3 1:42,2.1,15,2.2,15,2.4,16
2012/11/3 1:43,2.1,15,2.1,15,2.2,16
2012/11/3 1:44,2.1,15,2.1,15,1.9,15
2012/11/3 1:45,1.8,15,2,15,1.5,16
2012/11/3 1:46,1.5,15,1.8,15,0.5,2
2012/11/3 1:47,1.3,16,1.5,15,0.6,6
2012/11/3 1:48,1.1,16,1.3,15,0.9,7
2012/11/3 1:49,0.9,1,1.1,15,0.5,2
2012/11/3 1:50,0.8,1,0.9,15,0.5,16
2012/11/3 1:51,0.7,1,0.8,15,1.6,16
2012/11/3 1:52,0.6,1,0.7,15,2.7,14
2012/11/3 1:53,0.5,1,0.6,15,1,16
2012/11/3 1:54,0.5,16,0.5,15,2.5,12
2012/11/3 1:55,0.6,15,0.6,15,2.4,11
2012/11/3 1:56,0.7,14,0.7,16,1.6,13
2012/11/3 1:57,0.7,13,0.7,16,1.5,8
2012/11/3 1:58,0.8,13,0.8,16,2,8
2012/11/3 1:59,0.9,13,0.9,1,2.4,12
2012/11/3 2:00,1,13,1,13,2.1,10
2012/11/3 2:01,1.1,12,1.1,13,2.2,11
2012/11/3 2:02,1,12,1.1,13,0.8,7
2012/11/3 2:03,1,12,1,13,1,10
2012/11/3 2:04,0.9,12,1,13,0.9,10
2012/11/3 2:05,0.9,12,0.9,13,2,11
2012/11/3 2:06,0.9,12,0.9,13,1.8,12
2012/11/3 2:07,1,12,1,13,1.9,10
2012/11/3 2:08,1,11,1,13,2.6,10
2012/11/3 2:09,1,11,1,13,1.9,7
2012/11/3 2:10,1.1,11,1.1,13,3.8,4
2012/11/3 2:11,1.2,10,1.2,10,3.7,5
2012/11/3 2:12,1.4,10,1.4,10,4.5,10
2012/11/3 2:13,1.6,10,1.6,10,3.1,12
2012/11/3 2:14,1.7,10,1.7,10,2.7,11
2012/11/3 2:15,1.8,10,1.8,10,2.6,9
2012/11/3 2:16,1.9,10,1.9,10,3,9
2012/11/3 2:17,1.9,10,1.9,10,3,8
2012/11/3 2:18,1.9,9,1.9,10,3,9
2012/11/3 2:19,2,10,2,9,1.6,10
2012/11/3 2:20,1.8,10,1.9,9,1.6,8
2012/11/3 2:21,1.7,10,1.8,9,2,8
2012/11/3 2:22,1.7,10,1.8,9,1.6,7
2012/11/3 2:23,1.5,9,1.6,9,1.3,7
2012/11/3 2:24,1.4,8,1.5,9,1.4,6
2012/11/3 2:25,1.3,8,1.4,9,1.3,6
2012/11/3 2:26,1.1,8,1.3,9,1.8,8
2012/11/3 2:27,1,8,1.1,9,1.4,10
2012/11/3 2:28,0.9,8,1.1,9,1.3,8
2012/11/3 2:29,0.9,8,0.9,10,1.5,10
2012/11/3 2:30,0.9,8,0.9,10,1.4,10
2012/11/3 2:31,0.8,9,0.9,10,1.1,9
2012/11/3 2:32,0.8,9,0.8,10,1,12
2012/11/3 2:33,0.7,9,0.8,9,1,10
2012/11/3 2:34,0.7,10,0.7,8,0.8,10
2012/11/3 2:35,0.6,10,0.7,8,0.8,8
2012/11/3 2:36,0.6,10,0.6,8,0.5,12
2012/11/3 2:37,0.6,10,0.6,8,0.8,10
2012/11/3 2:38,0.6,10,0.6,8,1,10
2012/11/3 2:39,0.6,10,0.6,8,1.5,8
2012/11/3 2:40,0.6,9,0.6,8,1.1,8
2012/11/3 2:41,0.6,9,0.6,9,1,8
2012/11/3 2:42,0.6,9,0.6,9,1.1,8
2012/11/3 2:43,0.6,9,0.6,9,1.5,8
2012/11/3 2:44,0.5,9,0.6,10,1.1,6
2012/11/3 2:45,0.5,9,0.5,10,0.6,9
2012/11/3 2:46,0.5,9,0.5,10,0.4,10
2012/11/3 2:47,0.5,8,0.5,10,0.4,8
2012/11/3 2:48,0.4,8,0.5,10,0.5,9
2012/11/3 2:49,0.4,8,0.4,10,1,9
2012/11/3 2:50,0.3,8,0.4,9,0.6,8
2012/11/3 2:51,0.3,7,0.3,9,0.5,2
2012/11/3 2:52,0.3,8,0.3,9,2,8
2012/11/3 2:53,0.3,8,0.3,9,2.2,9
2012/11/3 2:54,0.3,9,0.3,9,1.3,8
2012/11/3 2:55,0.5,9,0.5,9,3.2,1
2012/11/3 2:56,0.6,6,0.6,6,2.9,16
2012/11/3 2:57,0.8,3,0.8,6,2.9,16
2012/11/3 2:58,1,16,1,16,2.9,15
2012/11/3 2:59,1.1,1,1.1,1,4.3,16
2012/11/3 3:00,1.3,16,1.3,16,3.7,12
2012/11/3 3:01,1.6,15,1.6,15,4.2,15
2012/11/3 3:02,1.8,15,1.8,15,3.6,14
2012/11/3 3:03,2.1,15,2.1,15,6.3,15
2012/11/3 3:04,2.4,16,2.4,16,4.5,16
2012/11/3 3:05,2.5,16,2.5,16,4.1,1
2012/11/3 3:06,2.5,16,2.6,16,4.7,16
2012/11/3 3:07,2.4,16,2.5,16,2.6,1
2012/11/3 3:08,2.5,16,2.5,16,2.7,15
2012/11/3 3:09,2.4,16,2.4,16,2.9,15
2012/11/3 3:10,2.3,16,2.4,16,2.6,16
2012/11/3 3:11,2.2,16,2.3,16,3.2,16
2012/11/3 3:12,2.3,16,2.3,16,6.2,16
2012/11/3 3:13,2.1,16,2.3,16,5.5,16
2012/11/3 3:14,1.9,16,2.1,16,1.6,1
2012/11/3 3:15,1.8,16,1.9,16,3.5,15
2012/11/3 3:16,1.9,15,1.9,16,4.2,16
2012/11/3 3:17,2,15,2,16,5.4,14
2012/11/3 3:18,2.2,15,2.2,16,4.7,14
2012/11/3 3:19,2.1,15,2.2,16,2,16
2012/11/3 3:20,2.1,15,2.2,16,3.7,15
2012/11/3 3:21,2.1,15,2.1,16,2,15
2012/11/3 3:22,2,15,2.1,16,4.1,1
2012/11/3 3:23,1.9,15,2,15,4.3,16
2012/11/3 3:24,2.2,15,2.2,15,6.2,15
2012/11/3 3:25,2.4,15,2.4,15,6.4,14
2012/11/3 3:26,2.6,15,2.6,15,6.3,14
2012/11/3 3:27,2.7,15,2.7,15,6.7,16
2012/11/3 3:28,2.8,15,2.8,15,7.6,16
2012/11/3 3:29,3.1,15,3.1,15,7,15
2012/11/3 3:30,3.3,16,3.3,16,5.8,16
2012/11/3 3:31,3.5,16,3.5,16,4.2,15
2012/11/3 3:32,3.5,15,3.5,16,5.4,16
2012/11/3 3:33,3.5,15,3.5,16,3.5,16
2012/11/3 3:34,3.4,15,3.5,16,4.2,15
2012/11/3 3:35,3.2,15,3.4,16,4.1,15
2012/11/3 3:36,2.9,15,3.2,16,2.6,1
2012/11/3 3:37,2.8,15,2.9,16,4.8,15
2012/11/3 3:38,2.9,15,2.9,16,9.1,15
2012/11/3 3:39,3,15,3.1,16,8.9,16
2012/11/3 3:40,3,15,3,16,6.5,15
2012/11/3 3:41,3.1,15,3.1,15,6.2,15
2012/11/3 3:42,3.1,15,3.1,15,5.1,16
2012/11/3 3:43,3.2,15,3.2,15,4.2,14
2012/11/3 3:44,3.4,15,3.4,15,7.1,16
2012/11/3 3:45,3.7,15,3.7,15,7.5,16
2012/11/3 3:46,3.9,15,3.9,15,6.1,15
2012/11/3 3:47,3.9,15,3.9,15,4.7,16
2012/11/3 3:48,3.8,15,3.8,15,6.2,16
2012/11/3 3:49,3.6,16,3.8,15,6.5,1
2012/11/3 3:50,3.7,16,3.7,15,8.3,15
2012/11/3 3:51,3.8,16,3.8,15,7.7,15
2012/11/3 3:52,3.9,16,3.9,15,6.5,16
2012/11/3 3:53,4.1,16,4.1,16,9.8,16
2012/11/3 3:54,4.2,16,4.2,16,6.2,16
2012/11/3 3:55,4,16,4.1,16,5.4,16
2012/11/3 3:56,3.9,16,3.9,16,3,16
2012/11/3 3:57,3.8,16,3.9,16,2.4,15
2012/11/3 3:58,3.6,16,3.8,16,2.9,15
2012/11/3 3:59,3.6,16,3.6,16,5.1,15
2012/11/3 4:00,3.4,15,3.5,16,4.7,14
2012/11/3 4:01,3.2,15,3.3,16,4.2,15
2012/11/3 4:02,3,15,3.1,16,4.7,14
2012/11/3 4:03,2.5,15,2.9,16,1.8,13
2012/11/3 4:04,2.3,15,2.5,16,4.5,15
2012/11/3 4:05,2.4,15,2.4,16,9.1,15
2012/11/3 4:06,2.7,15,2.7,16,7.7,15
2012/11/3 4:07,2.9,15,2.9,16,7.8,15
2012/11/3 4:08,3.2,15,3.2,16,7.2,16
2012/11/3 4:09,3.4,15,3.4,16,7.6,16
2012/11/3 4:10,3.5,15,3.5,15,6.3,16
2012/11/3 4:11,3.5,16,3.5,15,5.1,1
2012/11/3 4:12,3.5,16,3.5,15,5.2,15
2012/11/3 4:13,3.7,16,3.7,16,4.5,16
2012/11/3 4:14,3.9,16,3.9,16,6,16
2012/11/3 4:15,3.8,16,4,16,5.2,15
2012/11/3 4:16,3.7,16,3.8,16,5,16
2012/11/3 4:17,3.6,16,3.6,16,5.8,15
2012/11/3 4:18,3.5,16,3.6,16,6,14
2012/11/3 4:19,3.4,16,3.5,16,5.7,15
2012/11/3 4:20,3.5,16,3.5,16,7.8,15
2012/11/3 4:21,3.4,15,3.5,16,5,16
2012/11/3 4:22,3.3,15,3.4,16,3.6,16
2012/11/3 4:23,3.3,16,3.3,16,5.1,15
2012/11/3 4:24,3.1,16,3.2,16,3.8,15
2012/11/3 4:25,3,16,3.1,16,4.4,15
2012/11/3 4:26,2.9,16,3,16,3.5,16
2012/11/3 4:27,2.8,16,2.9,16,4.4,16
2012/11/3 4:28,2.7,16,2.8,16,4.4,16
2012/11/3 4:29,2.5,16,2.7,16,3.6,16
2012/11/3 4:30,2.3,16,2.5,16,3,1
2012/11/3 4:31,2.3,16,2.3,15,3.9,14
2012/11/3 4:32,2.7,16,2.7,16,8.1,16
2012/11/3 4:33,3,16,3,16,7,16
2012/11/3 4:34,3.2,16,3.2,16,6,16
2012/11/3 4:35,3.2,16,3.2,16,4.9,16
2012/11/3 4:36,3.4,16,3.4,16,5.2,15
2012/11/3 4:37,3.5,16,3.6,16,7,16
2012/11/3 4:38,3.5,16,3.6,16,6.9,16
2012/11/3 4:39,3.5,15,3.5,16,3.7,12
2012/11/3 4:40,3.4,15,3.5,16,2.5,12
2012/11/3 4:41,3.3,15,3.4,16,1.9,9
2012/11/3 4:42,2.8,14,3.3,16,1.3,8
2012/11/3 4:43,2.4,14,2.8,16,2,16
2012/11/3 4:44,2.2,14,2.4,16,3,16
2012/11/3 4:45,2.1,14,2.2,16,4.5,15
2012/11/3 4:46,2,15,2.1,16,4.7,15
2012/11/3 4:47,1.9,15,2,16,4.7,14
2012/11/3 4:48,1.9,15,1.9,16,7,16
2012/11/3 4:49,2.2,15,2.2,15,6.5,15
2012/11/3 4:50,2.4,15,2.4,15,5.5,15
2012/11/3 4:51,2.6,15,2.6,15,3.6,15
2012/11/3 4:52,2.7,15,2.7,14,3.3,14
2012/11/3 4:53,2.7,15,2.8,15,2.9,10
2012/11/3 4:54,2.7,15,2.7,15,2.9,13
2012/11/3 4:55,2.8,14,2.8,15,5.6,14
2012/11/3 4:56,2.7,14,2.8,15,4.3,15
2012/11/3 4:57,2.8,14,2.8,15,5.8,1
2012/11/3 4:58,2.9,15,2.9,14,6.4,16
2012/11/3 4:59,2.7,15,2.9,14,4.2,15
2012/11/3 5:00,2.6,15,2.6,14,3.6,15
2012/11/3 5:01,2.4,15,2.6,14,2.2,16
2012/11/3 5:02,2.5,15,2.5,14,4.1,15
2012/11/3 5:03,2.7,16,2.7,14,6.3,16
2012/11/3 5:04,2.9,16,2.9,14,5.8,15
2012/11/3 5:05,2.8,16,2.9,14,3.6,16
2012/11/3 5:06,2.7,16,2.8,14,2.1,16
2012/11/3 5:07,2.7,16,2.8,14,4.5,16
2012/11/3 5:08,2.5,15,2.7,15,4.3,15
2012/11/3 5:09,2.3,15,2.5,16,2.2,2
2012/11/3 5:10,2.6,15,2.6,16,7.9,1
2012/11/3 5:11,3,15,3,15,7.6,16
2012/11/3 5:12,3,15,3,15,4.4,16
2012/11/3 5:13,3,15,3.1,15,6.8,16
2012/11/3 5:14,3.1,16,3.1,15,5.4,15
2012/11/3 5:15,3.1,16,3.1,15,4.5,16
2012/11/3 5:16,3.2,16,3.2,16,2.9,16
2012/11/3 5:17,3.1,16,3.2,16,4.5,16
2012/11/3 5:18,3.1,16,3.1,16,4.4,16
2012/11/3 5:19,3,16,3.1,16,1.3,13
2012/11/3 5:20,2.6,15,3,16,1.6,15
2012/11/3 5:21,2.2,16,2.5,16,2.5,15
2012/11/3 5:22,1.9,15,2.1,16,0.4,2
2012/11/3 5:23,1.6,15,1.9,16,3.2,15
2012/11/3 5:24,1.5,15,1.6,16,3.3,1
2012/11/3 5:25,1.5,15,1.5,16,6.3,16
2012/11/3 5:26,1.7,15,1.7,16,6.3,14
2012/11/3 5:27,1.8,15,1.8,16,3.5,15
2012/11/3 5:28,1.7,15,1.8,16,2.9,14
2012/11/3 5:29,1.9,15,1.9,16,5.5,16
2012/11/3 5:30,1.9,15,2,15,1.5,1
2012/11/3 5:31,2.2,15,2.2,15,5.5,15
2012/11/3 5:32,2.6,15,2.6,15,7.2,14
2012/11/3 5:33,2.6,15,2.7,15,4.7,14
2012/11/3 5:34,2.6,14,2.6,15,2.5,13
2012/11/3 5:35,2.4,14,2.6,15,2.5,3
2012/11/3 5:36,2.3,14,2.4,15,4.2,1
2012/11/3 5:37,2.3,15,2.3,15,4.9,16
2012/11/3 5:38,2.5,15,2.5,15,5.6,16
2012/11/3 5:39,2.6,15,2.6,15,7,15
2012/11/3 5:40,2.8,15,2.8,15,3.3,15
2012/11/3 5:41,2.7,14,2.8,15,3.6,14
2012/11/3 5:42,2.6,14,2.7,15,6.4,15
2012/11/3 5:43,2.8,15,2.8,15,5.7,16
2012/11/3 5:44,2.9,15,2.9,15,3.7,16
2012/11/3 5:45,3.2,15,3.2,15,5.4,16
2012/11/3 5:46,3.4,15,3.4,15,6.1,16
2012/11/3 5:47,3.4,15,3.5,15,6.5,16
2012/11/3 5:48,3.4,15,3.4,15,6.2,15
2012/11/3 5:49,3.3,15,3.4,15,5.5,15
2012/11/3 5:50,3.3,16,3.3,15,5.5,16
2012/11/3 5:51,3.5,16,3.5,15,5.8,16
2012/11/3 5:52,3.4,16,3.6,16,4.3,16
2012/11/3 5:53,3.2,16,3.4,16,5.1,1
2012/11/3 5:54,3.3,16,3.3,16,4.3,16
2012/11/3 5:55,3.3,16,3.3,16,5.4,15
2012/11/3 5:56,3.2,16,3.3,16,6.1,15
2012/11/3 5:57,3.1,16,3.2,16,4.8,16
2012/11/3 5:58,3,16,3.1,16,4.3,15
2012/11/3 5:59,3.1,16,3.1,16,6.2,15
2012/11/3 6:00,3,16,3.1,16,3.5,1
2012/11/3 6:01,2.8,16,3,16,3.8,15
2012/11/3 6:02,2.9,16,2.9,16,6.3,15
2012/11/3 6:03,3,16,3,16,7,15
2012/11/3 6:04,3.2,16,3.2,16,7,16
2012/11/3 6:05,3.1,16,3.2,16,4.2,14
2012/11/3 6:06,3.1,16,3.1,16,5.4,16
2012/11/3 6:07,3.1,16,3.1,16,4.4,16
2012/11/3 6:08,3.2,15,3.2,16,4.4,15
2012/11/3 6:09,3,15,3.2,16,4.1,15
2012/11/3 6:10,3.1,15,3.1,16,4.2,15
2012/11/3 6:11,3.1,15,3.2,16,6,15
2012/11/3 6:12,2.9,15,3.1,16,2.4,16
2012/11/3 6:13,2.7,15,2.9,16,2.5,16
2012/11/3 6:14,2.3,15,2.7,16,2.2,15
2012/11/3 6:15,2.3,15,2.3,15,2.2,13
2012/11/3 6:16,2.1,14,2.3,15,2.4,12
2012/11/3 6:17,2.1,14,2.1,15,2.5,15
2012/11/3 6:18,1.8,14,2.1,15,1.5,4
2012/11/3 6:19,1.6,14,1.8,15,1.1,1
2012/11/3 6:20,1.4,14,1.6,15,1.4,14
2012/11/3 6:21,1.2,14,1.4,15,2,2
2012/11/3 6:22,1.3,15,1.3,15,2.9,15
2012/11/3 6:23,1.6,15,1.6,15,7.4,16
2012/11/3 6:24,1.6,15,1.6,15,4.1,15
2012/11/3 6:25,1.5,15,1.6,15,1.5,14
2012/11/3 6:26,1.5,15,1.5,14,2.1,12
2012/11/3 6:27,1.5,15,1.5,14,5.6,15
2012/11/3 6:28,1.9,15,1.9,15,6.8,15
2012/11/3 6:29,2.2,14,2.2,14,6.4,14
2012/11/3 6:30,2.4,15,2.4,15,5.1,16
2012/11/3 6:31,2.4,14,2.4,15,1.3,15
2012/11/3 6:32,2.4,14,2.4,15,3.2,16
2012/11/3 6:33,2.2,14,2.4,15,4.9,15
2012/11/3 6:34,2.3,15,2.3,15,3.8,16
2012/11/3 6:35,2.5,15,2.5,15,5.7,16
2012/11/3 6:36,2.7,15,2.7,15,3.9,16
2012/11/3 6:37,2.6,16,2.7,15,3.8,1
2012/11/3 6:38,2.5,16,2.6,15,5.2,16
2012/11/3 6:39,2.5,16,2.5,15,6.3,1
2012/11/3 6:40,2.5,16,2.5,15,4.4,16
2012/11/3 6:41,2.7,16,2.7,15,3.7,16
2012/11/3 6:42,2.6,16,2.7,15,2,16
2012/11/3 6:43,2.4,16,2.6,15,1.8,16
2012/11/3 6:44,2.3,16,2.4,15,1.5,11
2012/11/3 6:45,2,15,2.3,15,1.6,11
2012/11/3 6:46,1.9,15,2,15,2,15
2012/11/3 6:47,1.8,15,1.9,16,1.8,14
2012/11/3 6:48,1.6,15,1.8,16,1.1,1
2012/11/3 6:49,1.2,15,1.5,16,0.9,2
2012/11/3 6:50,1.1,15,1.2,16,2.5,15
2012/11/3 6:51,1.2,15,1.2,16,3.7,15
2012/11/3 6:52,1.3,15,1.3,16,3.9,14
2012/11/3 6:53,1.5,14,1.5,16,4.2,16
2012/11/3 6:54,1.6,14,1.6,16,3,13
2012/11/3 6:55,1.8,14,1.8,15,6.1,12
2012/11/3 6:56,2.2,14,2.2,14,6.4,12
2012/11/3 6:57,2.3,14,2.3,14,5.1,12
2012/11/3 6:58,2.5,14,2.5,14,4.3,11
2012/11/3 6:59,2.6,13,2.6,14,2.5,11
2012/11/3 7:00,2.6,12,2.6,14,1.9,9
2012/11/3 7:01,2.4,11,2.6,14,1.8,8
2012/11/3 7:02,2.2,11,2.4,14,1.5,15
2012/11/3 7:03,2.2,11,2.2,14,3.9,15
2012/11/3 7:04,2.2,11,2.2,14,3.6,16
2012/11/3 7:05,2,11,2.2,14,2.5,1
2012/11/3 7:06,1.6,11,1.9,14,2.5,4
2012/11/3 7:07,1.5,10,1.6,14,3.6,10
2012/11/3 7:08,1.5,10,1.5,14,3.5,11
2012/11/3 7:09,1.5,11,1.5,13,2.2,8
2012/11/3 7:10,1.5,12,1.5,12,3,12
2012/11/3 7:11,1.7,13,1.7,11,4.2,12
2012/11/3 7:12,1.9,13,1.9,11,3.2,13
2012/11/3 7:13,1.9,12,1.9,11,2.7,12
2012/11/3 7:14,1.8,12,1.9,11,2.5,12
2012/11/3 7:15,1.8,11,1.8,11,1.3,12
2012/11/3 7:16,1.8,12,1.8,13,3.8,14
2012/11/3 7:17,2,12,2,12,4.8,14
2012/11/3 7:18,1.9,13,1.9,12,3.3,15
2012/11/3 7:19,1.9,13,1.9,12,2.2,14
2012/11/3 7:20,2,14,2,12,3.1,14
2012/11/3 7:21,2.1,14,2.1,14,6.3,16
2012/11/3 7:22,2.2,14,2.2,14,4.9,16
2012/11/3 7:23,2.3,15,2.3,15,5.1,15
2012/11/3 7:24,2.5,15,2.5,15,4.9,15
2012/11/3 7:25,2.7,15,2.7,15,4.7,15
2012/11/3 7:26,2.8,15,2.8,15,3.2,11
2012/11/3 7:27,2.6,15,2.8,15,2.5,12
2012/11/3 7:28,2.8,14,2.8,15,3.9,11
2012/11/3 7:29,2.8,14,2.8,15,2.6,12
2012/11/3 7:30,2.9,13,2.9,13,4.5,13
2012/11/3 7:31,2.7,13,2.9,13,4.8,13
2012/11/3 7:32,2.5,13,2.7,13,1.4,14
2012/11/3 7:33,2.3,12,2.5,13,1.9,14
2012/11/3 7:34,2.2,12,2.3,13,3.6,9
2012/11/3 7:35,2.2,12,2.2,13,3.3,10
2012/11/3 7:36,2.1,12,2.2,13,2.6,13
2012/11/3 7:37,2.1,12,2.1,13,3.3,13
2012/11/3 7:38,2,12,2.1,13,3.2,13
2012/11/3 7:39,2.1,12,2.1,13,2.7,13
2012/11/3 7:40,1.9,12,2.1,13,2.6,9
2012/11/3 7:41,1.9,12,1.9,13,4.4,10
2012/11/3 7:42,1.9,12,1.9,13,2.6,9
2012/11/3 7:43,1.8,11,1.9,12,1.4,8
2012/11/3 7:44,1.7,11,1.8,12,2.6,10
2012/11/3 7:45,1.6,12,1.7,12,1.4,14
2012/11/3 7:46,1.6,12,1.6,12,3.1,15
2012/11/3 7:47,1.4,12,1.5,12,3,11
2012/11/3 7:48,1.4,11,1.4,12,3.2,9
2012/11/3 7:49,1.3,11,1.4,12,1.8,9
2012/11/3 7:50,1.4,11,1.4,12,2.7,8
2012/11/3 7:51,1.2,11,1.4,12,2,7
2012/11/3 7:52,1.1,12,1.2,12,1,13
2012/11/3 7:53,1.1,12,1.1,11,1.3,9
2012/11/3 7:54,1,12,1.1,11,0.8,9
2012/11/3 7:55,1,11,1,12,1.4,9
2012/11/3 7:56,1,11,1,12,2.6,10
2012/11/3 7:57,1,11,1,12,2.5,11
2012/11/3 7:58,0.9,11,1,11,1.4,11
2012/11/3 7:59,0.9,11,0.9,11,1.5,11
2012/11/3 8:00,0.9,11,0.9,11,2.5,11
2012/11/3 8:01,0.9,11,0.9,11,1.8,11
2012/11/3 8:02,1,11,1,12,2.2,10
2012/11/3 8:03,1.1,10,1.1,12,3,10
2012/11/3 8:04,1.2,10,1.2,10,2.2,9
2012/11/3 8:05,1.3,10,1.3,10,2.4,8
2012/11/3 8:06,1.3,10,1.4,10,2.2,8
2012/11/3 8:07,1.3,10,1.3,10,1.8,8
2012/11/3 8:08,1.4,9,1.4,10,3.8,5
2012/11/3 8:09,1.6,9,1.6,9,3.6,5
2012/11/3 8:10,1.8,8,1.8,8,4.5,3
2012/11/3 8:11,1.9,7,1.9,8,3.3,3
2012/11/3 8:12,1.9,7,2,7,2.5,2
2012/11/3 8:13,2,7,2,7,3.8,12
2012/11/3 8:14,2,7,2,7,3.5,13
2012/11/3 8:15,1.8,7,2,7,1.3,12
2012/11/3 8:16,1.8,8,1.8,7,1.9,12
2012/11/3 8:17,1.7,8,1.8,7,1.5,9
2012/11/3 8:18,1.7,12,1.8,7,3.3,13
2012/11/3 8:19,1.7,12,1.7,7,4.2,13
2012/11/3 8:20,1.5,12,1.7,7,3.5,9
2012/11/3 8:21,1.6,12,1.6,7,4.8,11
2012/11/3 8:22,1.7,11,1.7,7,3.8,10
2012/11/3 8:23,1.7,11,1.7,7,5.4,9
2012/11/3 8:24,1.7,11,1.7,7,3.9,9
2012/11/3 8:25,1.7,10,1.7,7,2,9
2012/11/3 8:26,1.7,10,1.7,8,3.8,9
2012/11/3 8:27,1.9,10,1.9,10,3.2,10
2012/11/3 8:28,1.8,10,1.9,10,3.1,9
2012/11/3 8:29,1.8,9,1.8,10,2.1,8
2012/11/3 8:30,1.7,9,1.8,10,1.9,9
2012/11/3 8:31,1.5,8,1.7,10,1,8
2012/11/3 8:32,1.3,8,1.5,10,0.9,7
2012/11/3 8:33,1.2,8,1.3,10,0.9,9
2012/11/3 8:34,1,9,1.1,10,0.4,9
2012/11/3 8:35,1,9,1,10,0.1,15
2012/11/3 8:36,0.8,9,0.9,10,0.5,15
2012/11/3 8:37,0.6,10,0.8,10,0.5,15
2012/11/3 8:38,0.5,11,0.6,10,0.8,15
2012/11/3 8:39,0.4,13,0.4,9,0.6,14
2012/11/3 8:40,0.3,13,0.4,9,0.4,13
2012/11/3 8:41,0.2,13,0.3,8,0.6,11
2012/11/3 8:42,0.3,13,0.3,8,0.9,15
2012/11/3 8:43,0.2,14,0.3,8,0.6,12
2012/11/3 8:44,0.3,14,0.3,9,1.1,9
2012/11/3 8:45,0.4,14,0.4,9,3.2,7
2012/11/3 8:46,0.6,13,0.6,9,2.2,7
2012/11/3 8:47,0.7,12,0.7,13,2.2,5
2012/11/3 8:48,0.8,12,0.8,12,1.4,3
2012/11/3 8:49,0.7,11,0.8,12,0.5,2
2012/11/3 8:50,0.8,7,0.8,12,1.4,13
2012/11/3 8:51,1,7,1,7,4.1,11
2012/11/3 8:52,1.3,7,1.3,7,6.4,12
2012/11/3 8:53,1.4,9,1.4,8,3.8,12
2012/11/3 8:54,1.5,8,1.5,9,2.4,16
2012/11/3 8:55,1.9,14,1.9,14,8.7,15
2012/11/3 8:56,2.2,15,2.2,15,7.9,16
2012/11/3 8:57,2.3,14,2.3,15,5.8,2
2012/11/3 8:58,2.6,14,2.6,14,6.2,15
2012/11/3 8:59,2.9,14,2.9,14,6.2,1
2012/11/3 9:00,3.4,15,3.4,15,11.1,16
2012/11/3 9:01,3.7,15,3.7,15,7.2,16
2012/11/3 9:02,3.6,16,3.7,15,5.4,16
2012/11/3 9:03,3.6,16,3.6,15,4.2,16
2012/11/3 9:04,3.9,16,3.9,16,5.2,16
2012/11/3 9:05,3.6,16,3.9,16,3.9,16
2012/11/3 9:06,3.3,15,3.5,16,4.2,12
2012/11/3 9:07,3.3,15,3.3,16,5.5,15
2012/11/3 9:08,3.2,15,3.3,16,6.1,15
2012/11/3 9:09,3.3,15,3.3,16,6.2,16
2012/11/3 9:10,3,15,3.3,16,5.2,16
2012/11/3 9:11,2.7,15,2.9,16,4.1,16
2012/11/3 9:12,2.6,15,2.6,16,4.5,15
2012/11/3 9:13,2.8,15,2.8,16,6.2,14
2012/11/3 9:14,2.8,15,2.8,16,5.6,14
2012/11/3 9:15,3,15,3,16,5.6,15
2012/11/3 9:16,3.2,15,3.2,15,7.5,16
2012/11/3 9:17,3.2,15,3.2,15,5,16
2012/11/3 9:18,3.2,15,3.2,15,5,15
2012/11/3 9:19,3.2,15,3.3,15,4.9,16
2012/11/3 9:20,3.3,15,3.3,15,4.4,16
2012/11/3 9:21,3.4,15,3.4,15,4.1,1
2012/11/3 9:22,3.5,16,3.5,16,7,15
2012/11/3 9:23,3.6,16,3.6,16,7.1,16
2012/11/3 9:24,3.4,16,3.6,16,4.1,16
2012/11/3 9:25,3.4,16,3.4,16,6.8,15
2012/11/3 9:26,3.4,16,3.4,16,6.5,15
2012/11/3 9:27,3.4,16,3.4,16,5.5,15
2012/11/3 9:28,3.5,16,3.6,16,6,15
2012/11/3 9:29,3.4,16,3.5,16,4.7,15
2012/11/3 9:30,3.5,16,3.5,16,7.9,15
2012/11/3 9:31,3.8,15,3.8,15,7,15
2012/11/3 9:32,3.9,15,3.9,15,6.7,16
2012/11/3 9:33,3.6,15,3.8,15,4.5,1
2012/11/3 9:34,3.7,16,3.7,15,5,16
2012/11/3 9:35,3.4,16,3.7,15,3.2,2
2012/11/3 9:36,3.2,16,3.4,15,2.9,14
2012/11/3 9:37,2.8,16,3.2,15,1.8,16
2012/11/3 9:38,2.7,16,2.8,15,4.2,15
2012/11/3 9:39,2.8,16,2.8,15,5.8,14
2012/11/3 9:40,2.7,16,2.8,15,6.4,15
2012/11/3 9:41,2.2,15,2.6,15,0.9,10
2012/11/3 9:42,1.9,16,2.1,15,2,16
2012/11/3 9:43,1.8,16,1.9,16,2.5,16
2012/11/3 9:44,1.6,16,1.8,16,2.2,15
2012/11/3 9:45,1.6,16,1.6,16,2.9,2
2012/11/3 9:46,1.7,16,1.7,16,5.1,16
2012/11/3 9:47,2,16,2,16,5.5,16
2012/11/3 9:48,2,16,2.1,16,4.7,16
2012/11/3 9:49,1.9,16,2,16,2.7,15
2012/11/3 9:50,2,16,2,16,7.1,15
2012/11/3 9:51,2.5,16,2.5,16,7.7,14
2012/11/3 9:52,2.8,16,2.8,16,6,15
2012/11/3 9:53,3.1,15,3.1,15,7.9,15
2012/11/3 9:54,3.2,15,3.3,15,4.4,15
2012/11/3 9:55,3.3,16,3.3,15,3.8,1
2012/11/3 9:56,3.1,16,3.3,15,1.6,16
2012/11/3 9:57,2.9,16,3.1,15,2.2,14
2012/11/3 9:58,2.8,16,2.9,15,2.7,15
2012/11/3 9:59,2.7,15,2.8,15,1.9,14
2012/11/3 10:00,2.5,16,2.7,15,5.2,6
2012/11/3 10:01,2.2,16,2.5,15,4.9,6
2012/11/3 10:02,2.2,16,2.2,15,5,9
2012/11/3 10:03,1.9,2,2.2,15,3.5,4
2012/11/3 10:04,1.8,3,1.9,15,1.8,3
2012/11/3 10:05,1.7,2,1.8,16,2,14
2012/11/3 10:06,1.8,2,1.8,16,3.8,2
2012/11/3 10:07,2,2,2,16,5.1,15
2012/11/3 10:08,2.2,2,2.2,15,5.8,15
2012/11/3 10:09,2.4,2,2.4,15,4.4,15
2012/11/3 10:10,2.2,1,2.4,16,2.2,14
2012/11/3 10:11,2.2,16,2.2,2,3.3,16
2012/11/3 10:12,2.1,16,2.2,2,3.2,16
2012/11/3 10:13,2,16,2.1,2,2.9,15
2012/11/3 10:14,2.1,16,2.1,2,2.7,14
2012/11/3 10:15,2.1,15,2.1,2,2.7,15
2012/11/3 10:16,2.3,15,2.3,2,6.1,15
2012/11/3 10:17,2.4,15,2.4,2,6.2,15
2012/11/3 10:18,2.5,15,2.5,15,7.1,14
2012/11/3 10:19,2.6,15,2.6,15,5.1,14
2012/11/3 10:20,2.7,15,2.7,15,3.5,15
2012/11/3 10:21,2.7,15,2.7,15,3.2,15
2012/11/3 10:22,2.8,15,2.8,15,3.9,16
2012/11/3 10:23,2.8,15,2.8,15,3,15
2012/11/3 10:24,2.7,15,2.8,15,2.2,16
2012/11/3 10:25,2.6,15,2.7,15,1.8,4
2012/11/3 10:26,2.4,16,2.6,15,1.8,3
2012/11/3 10:27,2.2,16,2.4,15,4.2,2
2012/11/3 10:28,1.9,16,2.2,15,2.5,1
2012/11/3 10:29,1.7,1,1.9,15,3.8,1
2012/11/3 10:30,1.7,1,1.7,15,3.6,13
2012/11/3 10:31,1.7,1,1.7,15,4.2,14
2012/11/3 10:32,1.8,1,1.8,15,5.4,15
2012/11/3 10:33,1.7,1,1.8,15,4.4,14
2012/11/3 10:34,1.7,1,1.7,15,2.1,15
2012/11/3 10:35,1.8,16,1.8,15,3.3,13
2012/11/3 10:36,1.9,16,1.9,16,4.2,1
2012/11/3 10:37,1.9,16,1.9,16,4.1,2
2012/11/3 10:38,1.9,16,1.9,16,3.3,3
2012/11/3 10:39,2.1,16,2.1,16,4.1,3
2012/11/3 10:40,2.1,1,2.1,16,3.1,3
2012/11/3 10:41,2,1,2.1,16,2.4,2
2012/11/3 10:42,1.8,1,2,16,1.8,2
2012/11/3 10:43,1.7,1,1.7,16,2.1,12
2012/11/3 10:44,1.8,1,1.8,16,2.2,12
2012/11/3 10:45,1.7,1,1.8,16,2.2,13
2012/11/3 10:46,1.6,1,1.7,16,1.6,9
2012/11/3 10:47,1.4,1,1.6,16,1.5,6
2012/11/3 10:48,1.4,1,1.5,16,2.5,4
2012/11/3 10:49,1.2,1,1.4,16,3,4
2012/11/3 10:50,1.2,2,1.2,1,2.5,2
2012/11/3 10:51,1.2,2,1.2,1,2.2,2
2012/11/3 10:52,1.1,1,1.2,1,2.1,16
2012/11/3 10:53,1.1,16,1.2,1,2.2,15
2012/11/3 10:54,1.1,16,1.1,1,4.3,15
2012/11/3 10:55,1.1,16,1.1,1,1.9,15
2012/11/3 10:56,1.2,16,1.2,1,4.2,14
2012/11/3 10:57,1.3,16,1.3,1,3.3,13
2012/11/3 10:58,1.4,15,1.4,1,3.7,16
2012/11/3 10:59,1.3,14,1.4,16,2.1,15
2012/11/3 11:00,1.2,14,1.3,16,1.8,16
2012/11/3 11:01,1.3,15,1.3,16,3.7,16